This is the latest recevied weather packets stored in our database for station/object N4DBJ. If no packets are shown the sender has not sent any weather packets the latest 10 day(s).
| Time | Temp. | Humidity | Pressure | Rain* | Wind** | Luminosity | Snow |
|---|---|---|---|---|---|---|---|
| 1788136101 | 79° F | 91% | 761.5 mmHg | 0 in | - | 0 W/m² | - |
| 1788135800 | 79° F | 90% | 761.6 mmHg | 0 in | - | 0 W/m² | - |
| 1788135496 | 80° F | 90% | 761.7 mmHg | 0 in | - | 1 W/m² | - |
| 1788135191 | 80° F | 89% | 761.5 mmHg | 0 in | - | 4 W/m² | - |
| 1788134889 | 81° F | 87% | 761.6 mmHg | 0 in | - | 7 W/m² | - |
| 1788134589 | 81° F | 86% | 761.6 mmHg | 0 in | - | 11 W/m² | - |
| 1788134287 | 82° F | 84% | 761.8 mmHg | 0 in | - | 15 W/m² | - |
| 1788133982 | 83° F | 82% | 761.5 mmHg | 0 in | - | 17 W/m² | - |
| 1788133677 | 83° F | 80% | 761.6 mmHg | 0 in | - | 21 W/m² | - |
| 1788133373 | 84° F | 77% | 761.5 mmHg | 0 in | - | 23 W/m² | - |
| 1788133069 | 86° F | 74% | 761.7 mmHg | 0 in | - | 25 W/m² | - |
| 1788132764 | 87° F | 72% | 761.6 mmHg | 0 in | - | 27 W/m² | - |
| 1788132459 | 88° F | 71% | 761.5 mmHg | 0 in | - | 30 W/m² | - |
| 1788132155 | 90° F | 69% | 761.6 mmHg | 0 in | - | 33 W/m² | - |
| 1788131851 | 91° F | 62% | 761.3 mmHg | 0 in | - | 36 W/m² | - |
| 1788131551 | 92° F | 63% | 761.5 mmHg | 0 in | - | 43 W/m² | - |
| 1788131246 | 92° F | 63% | 761.5 mmHg | 0 in | - | 49 W/m² | - |
| 1788130941 | 92° F | 62% | 761.4 mmHg | 0 in | - | 93 W/m² | - |
| 1788130640 | 92° F | 61% | 761.5 mmHg | 0 in | - | 52 W/m² | - |
| 1788130336 | 93° F | 58% | 761.7 mmHg | 0 in | - | 122 W/m² | - |
| 1788130034 | 93° F | 60% | 761.5 mmHg | 0 in | - | 137 W/m² | - |
| 1788129730 | 93° F | 59% | 761.5 mmHg | 0 in | - | 141 W/m² | - |
| 1788129427 | 93° F | 62% | 761.5 mmHg | 0 in | - | 166 W/m² | - |
| 1788129122 | 94° F | 59% | 761.4 mmHg | 0 in | - | 169 W/m² | - |
| 1788128816 | 94° F | 59% | 761.5 mmHg | 0 in | - | 190 W/m² | - |
* Rain latest hour (hover to see other rain measurements)
** Current wind speed in m/s (hover to see current wind gust speed)